User: anonymous
Location: Columbia
(38.9520°N, 92.3340°W)
Time: 23:37:56
(UTC-05:00)
Language:

Iridium 22 - Orbit

View from above orbital plane
View from above orbital plane
View from above satellite
View from above satellite

Ground track
Ground track

The orbit data is extracted from the following two-line orbital elements,

1 24907U 97043E   14209.44381457  .00000344  00000-0  11571-3 0  9064
2 24907 086.4006 336.8701 0002222 110.6644 314.0209 14.34216502886656
Epoch (UTC): 28 July 2014 10:39:05
Eccentricity: 0.0002222
inclination: 86.4006°
perigee height: 776 km
apogee height: 779 km
right ascension of ascending node: 336.8701°
argument of perigee: 110.6644°
revolutions per day: 14.34216502
mean anomaly at epoch: 314.0209°
orbit number at epoch: 88665

The dashed part of the orbit path shows where the satellite is in the earth's shadow,  

DLR